Regional Weather Roundup
Issued by NWS

Home | Current Version | Previous Version | Text Only | Print | Product List | Glossary Off
Versions: 1 2 3 4 5 6 7 8 9 10 11 12 13 14 15 16 17 18 19 20 21 22 23 24 25 26 27 28 29 30 31 32 33 34 35 36 37 38 39 40 41 42 43 44 45 46 47 48 49 50

000
ASUS43 KMKX 042021
RWRWI

WISCONSIN REGIONAL WEATHER ROUNDUP
NATIONAL WEATHER SERVICE MILWAUKEE/SULLIVAN WI
300 PM CDT SAT JUL 04 2015

NOTE: "FAIR" INDICATES FEW OR NO CLOUDS BELOW 12,000 FEET WITH NO
SIGNIFICANT WEATHER AND/OR OBSTRUCTIONS TO VISIBILITY.

WIZ001-002-006>008-014>016-023>028-042100-
NORTHWEST WISCONSIN

CITY           SKY/WX    TMP DP  RH WIND       PRES   REMARKS
SUPERIOR ARPT  SUNNY     68  60  77 E9        29.95F
ASHLAND        SUNNY     74  65  73 N10       29.96F
HAYWARD        MOSUNNY   81  55  40 S8        29.96S HX  81
SIREN          MOSUNNY   83  58  41 S5        29.94S HX  83
CUMBERLAND     MOSUNNY   79  57  47 SW6       29.96S HX  80
RICE LAKE      MOSUNNY   82  58  44 SW5       29.96F HAZE    HX  82
CHETEK         NOT AVBL
LADYSMITH      SUNNY     82  56  41 SW6       29.98S HX  81
EAU CLAIRE     MOSUNNY   83  62  49 SW6       29.94S HAZE    HX  84
MENOMONIE      SUNNY     83  62  49 S3        29.95S HAZE    HX  84
NEW RICHMOND   MOSUNNY   81  63  55 S3        29.95S HAZE    HX  82
OSCEOLA        MOSUNNY   82  62  51 S6        29.96S HAZE    HX  83
$$

WIZ003>005-009-010-017-018-042100-
NORTH CENTRAL WISCONSIN

CITY           SKY/WX    TMP DP  RH WIND       PRES   REMARKS
MANITOWISH WTR MOSUNNY   77  57  49 CALM      29.99S
ARBOR VITAE    PTSUNNY   78  54  44 CALM      29.99S
WOODRUFF       PTSUNNY   78  54  44 CALM      29.99S
RHINELANDER    PTSUNNY   82  49  31 VRB6      30.00R HX  81
EAGLE RIVER    PTSUNNY   79  52  38 CALM      29.99S
LAND O LAKES   PTSUNNY   78  52  40 CALM      30.00S
PHILLIPS       SUNNY     80  58  46 W5        29.97S HX  80
TOMAHAWK       MOSUNNY   79  52  39 CALM      29.98F
MEDFORD        MOSUNNY   78  59  52 S6        29.98S
MERRILL        MOSUNNY   81  55  40 S5        29.98S HX  81
$$

WIZ029-030-035-036-043>047-042100-
CENTRAL WISCONSIN

CITY           SKY/WX    TMP DP  RH WIND       PRES   REMARKS
WAUSAU         SUNNY     83  57  41 SW8       29.95F HX  82
MOSINEE        MOSUNNY   81  59  47 SW5       29.99S HX  81
MARSHFIELD     MOSUNNY   81  60  48 CALM      29.97S HAZE    HX  82
STEVENS POINT  SUNNY     80  60  50 CALM      29.97F HX  80
WAUPACA        MOSUNNY   84  62  47 SE6       29.96F HX  84
WAUTOMA        PTSUNNY   83  62  48 SW9       29.97F HX  84
WISC RAPIDS    SUNNY     82  60  47 SW6       29.98S HX  82
CAMP DOUGLAS   MOSUNNY   82  66  57 W7        29.96F HX  84
$$

WIZ011>013-019>022-031-037>040-048>050-042100-
NORTHEAST WISCONSIN

CITY           SKY/WX    TMP DP  RH WIND       PRES   REMARKS
ANTIGO         MOSUNNY   78  61  55 E6        29.99S HAZE
SHAWANO        MOSUNNY   82  63  53 NE6       29.96F HX  83
OCONTO         MOSUNNY   77  65  66 E6        29.97F
STURGEON BAY   MOSUNNY   73  61  64 E7        30.02S
GREEN BAY      MOSUNNY   80  64  58 CALM      29.96F HX  82
MANITOWOC      SUNNY     72  63  73 MISG      29.99S
APPLETON       PTSUNNY   79  61  53 SW5       29.98S HX  80
CLINTONVILLE   PTSUNNY   81  59  47 W3        29.96S HX  81
OSHKOSH        MOSUNNY   81  61  50 VRB3      29.97S HX  82
$$

WIZ032>034-041-042-053>061-042100-
SOUTHWEST WISCONSIN

CITY           SKY/WX    TMP DP  RH WIND       PRES   REMARKS
LA CROSSE      SUNNY     83  63  50 S9        29.95F HX  84
SPARTA         PTSUNNY   84  60  43 SW6       29.97S HX  84
VIROQUA        MOSUNNY   79  61  53 SW8       30.00S HX  80
BOSCOBEL       SUNNY     83  59  44 SW7       29.98S HX  83
PRAIRIE DU CHI MOSUNNY   80  58  47 S7        29.98S HX  81
PLATTEVILLE    SUNNY     79  59  49 SW9       30.00S HX  80
$$

WIZ056-057-062-063-064-067-068-042100-
SOUTH CENTRAL WISCONSIN

CITY           SKY/WX    TMP DP  RH WIND       PRES   REMARKS
REEDSBURG      SUNNY     80  60  49 SW6       29.98S HX  81
BARABOO/DELLS  SUNNY     81  59  47 SW8       29.98S HX  81
LONE ROCK      SUNNY     82  59  45 W8        29.98F HX  82
MINERAL POINT  SUNNY     81  57  44 SW8       30.01S HX  81
MADISON        MOSUNNY   81  59  47 CALM      29.98F HX  81
MIDDLETON      MOSUNNY   82  58  43 CALM      29.99F HX  82
WATERTOWN      SUNNY     78  62  56 S6        29.99S HX  80
MONROE         PTSUNNY   79  59  50 SW8       30.00S HX  80
JANESVILLE     MOSUNNY   81  61  50 W8        29.99S HX  81
$$

WIZ051-052-058>065-066-070>072-042100-
SOUTHEAST WISCONSIN

CITY           SKY/WX    TMP DP  RH WIND       PRES   REMARKS
MILWAUKEE      MOSUNNY   79  59  50 SE14      29.99S HX  80
WAUKESHA       PTSUNNY   79  59  50 SW6       30.00S HX  80
MILWAUKEE/TIMM CLOUDY    81  55  41 SW7       29.99S HX  80
RACINE         SUNNY     77  58  51 S12       30.01S
BURLINGTON     SUNNY     78  58  51 S5        29.99F
KENOSHA        MOSUNNY   80  60  50 NW3       30.00S HX  81
FOND DU LAC    MOSUNNY   81  62  52 SW7       29.98S HX  82
SHEBOYGAN      PTSUNNY   80  64  58 SE7       29.97F HX  82
WEST BEND      PTSUNNY   79  57  47 S3        29.99S HX  80
JUNEAU         MOSUNNY   79  63  58 SW6       30.00S HX  80
$$

LSZ147-162-042100-
LAKE SUPERIOR

STATION/POSITION TIME  TEMP    WIND        PRES    WAVE
                       AIR SEA DIR/SP/G            HT/PER
                 (UTC) (F)     (DEG/KT/KT) (MB)    (FT/S)
W MID LAKE BUOY  1950   42 39   50/  6/  6 1015.6S   0
DEVILS ISLAND    2000   57      80/  9/ 10 1015.0F
SAXON HARBOR     1900   64        CALM     1014.6F
$$

LMZ867-665-643>646-042100-
LAKE MICHIGAN

STATION/POSITION TIME  TEMP    WIND        PRES    WAVE
                       AIR SEA DIR/SP/G            HT/PER
                 (UTC) (F)     (DEG/KT/KT) (MB)    (FT/S)
CHAMBERS ISLAND  1900   70      10/  5/  6 1015.6S
S GREEN BAY BUOY 2000   70 70   50/ 10/ 14 1016.4S
N MID LAKE BUOY  1950   59 47  190/  4/  4 1015.9R   0
NORTHPORT PIER   1900   63     140/  5/  6 1015.6S
SISTER BAY       1914          120/  4/  9   N/A
ALGOMA LAKESHORE 1811           70/  5/  5   N/A
KEWAUNEE LAKESHO 2000   63      50/  3/  7 1015.0F
SHEBOYGAN LAKESH 2000   63     150/  9/  9 1015.4S
PORT WASHINGTON  1900   72     170/  5/  7 1015.9S
ATWATER BUOY     2000   65 62  150/ 10/ 12 1016.7F
MILWAUKEE LAKESH 2000   65     140/ 12/ 13   N/A
KENOSHA   LAKESH 2000   67     160/  7/ 10 1015.6S
$$

TC  - TEMPERATURE IN CELSIUS
VSB - VISIBILITY IN STATUTE MILES
WCI - WIND CHILL INDEX
HX  - HEAT INDEX



USA.gov is the U.S. government's official web portal to all federal, state and local government web resources and services.